GFSFLT1_sfc_dewp_000.txt.gz
Dewpoint
47 49 52 51 56 56 56 58 58 53 45 48 47 48 48 46 43 44 45 44 44 44 44 45 46 44 43 43 42 43 43 44
46 47 47 46 47 47 50 50 51 43 46 46 49 44 43 42 42 45 45 45 45 45 44 45 45 43 42 41 42 42 41 42
43 44 47 47 45 47 48 46 45 45 48 48 47 44 43 43 46 44 45 46 43 42 43 42 43 41 41 41 42 41 41 42
42 44 43 41 40 41 41 40 41 45 46 43 44 44 44 44 42 42 43 42 41 40 40 41 41 41 41 40 41 41 41 42
42 42 42 41 40 39 39 39 39 40 41 41 43 43 41 43 43 41 38 39 40 39 39 41 41 41 40 41 42 42 41 40
42 42 42 41 41 40 39 39 39 39 39 40 42 39 39 41 41 37 36 38 39 38 39 40 40 40 40 40 41 40 41 40
42 43 42 41 40 39 37 36 38 39 39 39 41 37 37 38 35 35 35 37 37 38 38 38 37 38 38 39 38 39 38 38
42 41 41 41 41 39 39 39 38 38 39 39 38 37 37 34 33 34 33 36 37 38 38 38 38 38 37 37 36 36 37 36
41 41 39 39 41 41 40 38 35 38 37 36 37 38 38 36 35 33 36 37 37 38 38 37 36 36 36 35 35 35 35 35
39 39 40 40 40 40 39 36 33 35 36 37 37 39 38 39 38 37 39 37 37 36 36 34 34 34 34 35 34 34 33 33
38 39 39 40 40 39 40 38 35 34 36 38 38 38 38 39 37 37 35 35 36 35 33 32 32 33 33 34 33 33 33 33
38 38 38 37 35 36 37 37 38 37 36 37 37 36 36 36 36 35 34 34 35 34 32 30 29 29 29 30 31 33 33 31
38 37 35 34 33 33 31 35 36 36 37 38 38 38 36 34 34 32 33 33 33 32 31 29 26 26 26 27 29 28 25 24
36 35 33 32 30 28 25 27 26 27 30 34 37 37 38 33 30 31 30 30 28 27 27 24 24 25 25 27 25 24 23 22
34 33 31 28 25 23 24 26 27 25 24 27 27 29 33 32 30 31 34 34 34 27 23 24 26 25 26 24 22 21 21 21
33 32 29 22 22 23 23 25 26 26 25 25 32 36 34 33 34 34 36 36 34 24 22 23 24 25 23 22 21 21 20 20
32 30 22 21 22 21 22 23 25 27 25 30 35 36 36 35 34 35 35 35 24 19 21 23 23 22 27 26 23 20 19 19
31 25 20 21 20 21 19 21 24 25 26 32 33 35 35 35 36 36 35 25 17 19 21 23 23 23 27 27 26 21 20 20
27 17 17 19 19 18 20 21 22 25 31 31 33 33 33 34 35 33 31 24 20 21 23 24 24 23 27 29 27 25 23 23

GFSFLT1_sfc_dewp_003.txt.gz
Dewpoint
47 51 52 52 53 55 57 57 58 54 51 50 48 50 49 49 45 43 43 43 45 44 45 45 45 42 41 40 39 41 41 42
45 46 47 45 49 50 53 52 51 50 51 50 49 48 47 46 44 45 44 43 42 42 42 42 42 40 39 40 41 40 38 41
44 44 45 45 46 47 48 48 46 46 48 48 50 48 47 47 44 42 41 41 40 39 41 41 40 39 39 39 39 39 40 42
44 42 39 38 39 40 40 41 43 44 49 48 44 43 43 41 40 40 38 41 39 39 40 40 40 40 39 39 40 40 39 40
40 39 38 37 37 37 37 37 38 39 40 40 40 40 39 41 41 36 36 39 38 39 39 39 39 39 39 40 40 39 39 38
40 40 39 39 39 37 37 38 38 38 38 40 41 39 37 40 37 34 35 38 38 38 37 37 38 38 37 37 37 36 37 36
41 41 40 39 38 37 36 37 37 38 38 38 39 36 37 34 32 33 34 36 38 38 37 38 37 37 36 35 34 34 34 35
42 40 39 39 39 39 39 38 38 38 37 37 37 36 33 32 33 34 34 36 37 37 37 37 36 36 35 34 33 33 33 32
39 39 39 39 38 35 33 34 34 34 34 34 36 35 36 36 36 37 37 36 37 37 37 35 34 34 34 34 32 32 31 30
38 38 38 38 38 38 35 31 31 32 34 35 36 37 37 38 37 37 36 36 37 37 35 35 36 34 33 33 32 30 31 30
37 37 35 34 35 36 37 36 34 34 35 36 37 37 36 37 37 36 36 35 37 36 36 37 33 32 32 32 31 31 31 31
36 35 33 32 31 31 33 33 30 29 31 34 36 35 35 36 36 36 35 34 34 34 34 31 31 29 27 27 27 30 31 28
34 33 32 31 27 25 26 26 24 26 28 31 31 33 33 34 34 33 34 32 31 30 31 32 28 25 25 26 27 27 24 23
34 32 30 26 25 25 25 25 23 23 23 25 27 30 32 33 30 29 31 32 33 34 34 27 24 25 26 26 26 23 21 21
33 31 27 23 23 23 23 24 25 24 23 26 31 33 32 30 28 30 32 34 34 32 31 25 25 25 25 24 22 21 21 21
31 29 23 20 22 22 21 23 24 25 24 28 31 33 33 33 32 32 32 33 32 32 27 22 24 24 23 21 21 22 21 20
30 26 19 19 20 19 20 22 23 26 25 29 32 32 33 34 34 34 35 34 33 23 17 22 23 22 27 27 25 21 20 20
28 22 16 18 20 20 20 21 23 25 26 30 32 33 33 33 34 35 33 32 21 19 21 23 22 22 27 28 30 25 23 22
27 17 13 18 19 19 20 20 22 24 26 31 31 32 32 32 34 33 32 33 30 19 24 24 24 27 29 28 28 24 23 21

GFSFLT1_sfc_dewp_006.txt.gz
Dewpoint
48 51 52 55 57 58 58 57 56 55 55 54 53 50 49 50 49 48 44 42 44 44 42 42 41 39 39 40 39 40 40 41
47 48 51 51 52 52 53 53 54 52 50 49 48 47 50 51 44 43 42 41 40 40 40 40 40 39 39 40 39 39 38 42
44 43 45 48 51 52 52 50 48 48 48 48 50 50 48 43 41 39 40 40 39 39 40 40 39 38 39 40 40 39 39 41
41 39 38 40 44 44 42 43 43 45 48 48 44 43 43 39 40 36 38 39 39 39 39 39 38 38 39 39 39 39 38 39
37 36 36 36 36 37 38 39 39 40 40 40 39 39 38 40 37 35 37 38 38 38 38 38 38 38 39 39 38 37 38 34
38 38 38 39 38 37 38 38 38 38 39 41 40 37 39 38 35 34 34 37 37 37 37 37 37 37 36 36 34 33 35 33
40 40 39 38 38 37 37 39 39 39 38 39 38 37 35 33 34 35 35 35 37 37 37 37 37 36 35 34 33 33 33 33
41 39 38 37 36 36 37 36 35 36 36 36 36 35 32 33 34 35 36 37 37 37 37 36 36 35 35 33 31 31 30 29
39 38 37 37 37 33 32 32 32 34 35 35 35 35 36 37 38 37 37 36 36 37 36 34 34 36 35 35 33 31 31 29
38 37 36 36 37 36 33 33 33 34 35 36 36 36 35 36 36 37 37 37 37 37 35 37 37 37 35 34 32 31 31 30
36 33 33 34 34 36 34 30 27 28 29 31 30 30 31 33 34 34 35 36 36 37 36 37 35 33 32 32 30 30 30 31
33 32 31 29 29 28 26 24 23 25 27 28 29 30 31 32 32 34 35 34 35 35 33 33 31 31 31 28 26 27 29 29
32 31 29 25 24 24 23 22 22 24 25 28 28 30 30 30 31 31 32 32 31 32 32 32 32 30 27 25 25 27 25 23
33 31 26 24 24 24 24 23 21 22 22 24 28 30 31 30 29 28 30 30 30 32 34 32 28 26 24 25 26 25 22 21
32 30 25 23 24 25 24 23 24 23 22 25 28 30 31 31 31 30 30 31 33 34 31 31 27 24 24 25 23 21 21 22
32 29 23 22 23 23 22 23 24 24 24 24 28 31 31 31 32 33 33 33 34 32 32 26 22 23 23 22 21 21 21 21
31 28 22 21 21 21 20 21 23 25 25 25 29 31 32 32 33 33 33 36 33 25 19 22 23 22 29 28 28 27 23 22
30 26 22 19 20 21 20 20 22 24 25 26 30 31 31 31 32 32 33 31 28 25 23 24 24 27 30 29 29 24 23 22
29 28 21 16 19 19 21 20 21 23 24 26 30 30 30 31 31 31 31 31 31 22 24 24 26 24 25 26 24 21 20 19

GFSFLT1_sfc_dewp_009.txt.gz
Dewpoint
51 54 57 60 60 60 60 60 60 59 57 54 53 50 49 50 48 45 44 42 44 44 43 44 42 40 40 40 40 38 39 38
50 53 56 57 58 58 57 57 57 56 52 51 51 50 50 47 41 43 43 43 42 44 41 41 41 40 42 41 38 35 32 39
47 51 54 56 56 56 56 54 52 49 49 50 52 52 47 41 40 42 41 42 40 40 42 40 42 40 42 41 38 33 36 41
45 48 51 53 51 51 50 49 49 48 49 48 46 46 45 42 38 38 39 40 38 40 42 42 42 42 40 41 40 38 33 36
39 40 40 42 42 44 44 44 43 43 44 44 45 42 41 42 38 38 39 41 40 38 40 42 42 41 41 40 37 38 36 31
37 38 39 39 42 43 43 42 42 42 44 44 42 42 41 38 39 40 40 41 41 39 39 41 41 39 40 39 37 34 32 29
40 40 40 40 41 43 42 39 38 41 42 42 43 42 38 38 39 39 39 40 40 41 39 40 40 39 37 36 36 33 31 30
40 39 38 39 40 40 38 36 36 39 39 39 39 39 40 40 39 38 38 37 36 39 41 40 38 36 36 36 33 33 31 27
40 38 38 36 36 36 37 36 36 37 38 37 36 33 30 28 30 30 30 31 33 40 40 38 38 38 37 36 34 33 33 31
39 38 38 37 36 38 36 30 27 29 31 30 31 30 30 29 31 31 30 34 36 40 39 38 39 37 36 34 33 33 33 33
38 36 37 38 37 33 31 27 25 27 27 29 28 29 30 31 31 31 32 34 38 40 38 38 36 37 34 34 32 32 31 31
34 33 34 36 31 27 26 25 24 25 25 28 30 29 31 31 31 31 32 35 36 38 38 35 36 34 33 32 31 29 28 30
32 31 29 27 26 24 25 25 24 24 26 28 28 30 31 31 31 31 34 33 35 35 34 34 34 34 34 29 28 26 27 27
32 28 25 24 24 25 25 25 22 23 23 24 27 29 31 31 31 33 33 34 33 33 34 34 33 32 29 26 27 28 26 24
32 29 24 24 25 25 26 27 26 24 22 23 27 30 31 32 32 33 34 35 35 35 35 34 34 29 24 26 25 24 24 24
32 30 24 23 25 27 27 26 26 26 25 24 27 31 32 32 33 33 34 36 36 34 31 25 25 25 22 25 23 25 25 25
32 30 25 24 24 28 25 25 25 25 25 27 27 30 32 32 32 33 34 35 35 29 28 26 26 24 31 30 28 24 21 18
32 32 28 25 25 27 24 23 24 24 25 26 27 29 31 32 31 30 32 33 34 34 28 27 28 27 27 27 25 18 17 16
32 31 29 27 23 22 24 21 21 23 23 25 27 28 29 30 30 29 32 33 32 33 28 26 25 23 23 22 22 19 17 15

GFSFLT1_sfc_dewp_012.txt.gz
Dewpoint
51 54 55 56 57 59 62 62 62 62 61 57 53 49 49 49 48 45 44 43 45 45 44 45 41 39 38 39 40 38 38 38
53 56 58 59 60 60 61 61 61 59 56 53 49 49 49 47 44 44 44 43 42 43 40 40 41 39 42 42 39 38 35 38
53 56 58 59 59 60 59 59 58 56 53 49 50 51 48 43 43 44 41 41 39 38 42 40 40 38 40 42 40 36 32 35
53 55 56 56 56 56 54 52 51 50 51 49 49 48 45 43 41 40 41 41 39 40 42 41 41 39 36 40 40 39 35 34
48 48 50 49 49 50 49 48 47 46 44 45 47 43 42 42 42 41 40 43 43 41 40 42 41 39 39 39 36 38 35 30
42 42 42 43 46 46 45 44 43 45 45 46 44 43 41 40 41 41 42 42 42 40 40 40 40 39 40 40 38 35 34 33
38 39 40 41 44 46 45 43 42 43 43 44 44 42 40 39 39 36 33 31 29 30 30 39 41 40 41 38 37 36 34 31
40 39 39 41 44 44 42 40 40 41 42 40 40 38 34 30 27 25 26 23 24 27 32 35 38 40 38 38 36 37 32 28
40 40 40 41 42 41 41 39 38 36 34 31 30 27 24 23 26 27 25 26 26 32 35 37 39 39 38 38 37 34 32 29
40 40 40 40 40 42 39 33 29 29 30 29 29 29 29 29 30 30 27 29 26 33 39 39 39 39 38 37 33 31 30 28
41 40 40 39 39 36 35 30 28 28 27 28 27 28 29 31 31 30 29 30 31 33 36 38 39 39 37 33 30 27 26 26
41 39 39 39 35 33 30 29 28 27 26 28 30 30 30 30 30 30 29 32 30 31 34 36 37 36 32 32 33 25 24 25
39 37 38 36 33 29 29 29 27 25 26 27 28 29 29 29 30 29 31 31 32 31 32 33 35 33 32 33 30 23 24 24
37 35 34 32 30 28 28 29 27 24 22 23 26 27 28 29 30 31 30 31 32 33 32 32 32 32 32 28 25 24 25 26
35 33 31 29 27 28 29 32 30 24 21 22 24 28 28 30 31 31 31 31 32 32 32 33 34 31 28 24 24 26 26 26
35 33 31 28 27 30 33 31 29 27 24 22 25 28 29 30 31 30 31 33 32 32 31 29 28 26 22 27 26 27 27 25
35 34 32 28 27 31 29 29 27 26 25 25 26 28 28 30 29 31 30 30 30 30 31 31 31 24 31 29 25 22 21 20
35 35 33 29 27 29 29 26 26 25 24 24 25 27 28 28 27 28 27 29 31 30 31 32 31 31 27 24 23 21 20 18
36 35 33 30 27 27 28 23 22 22 22 24 24 24 25 26 27 27 29 29 29 28 28 30 29 25 22 21 21 22 19 17

GFSFLT1_sfc_dewp_015.txt.gz
Dewpoint
50 51 50 50 52 58 60 61 63 61 60 60 58 56 53 51 50 47 46 44 45 46 44 46 44 41 41 43 44 42 40 37
51 53 56 55 57 58 61 61 62 60 58 56 52 50 50 49 46 46 46 44 42 44 42 43 43 42 43 43 42 41 33 34
52 55 57 57 58 59 61 60 60 57 54 51 50 50 50 45 44 45 43 44 42 41 44 43 43 41 42 41 40 37 34 34
52 55 56 57 58 59 58 57 55 52 51 51 51 50 46 43 43 41 43 44 42 42 43 43 43 41 36 39 38 39 34 34
52 54 55 55 55 55 53 51 49 50 48 45 45 44 43 44 42 42 42 43 43 40 39 40 41 39 38 37 34 37 37 32
49 48 48 48 50 50 49 46 44 45 46 47 45 44 42 41 42 41 41 37 33 29 29 32 35 38 39 40 40 38 35 34
43 43 44 44 46 47 47 44 44 45 46 46 46 43 40 37 33 28 26 25 25 27 27 32 34 36 39 38 38 38 39 37
39 39 39 43 45 46 45 43 42 44 43 41 39 34 32 28 27 25 26 25 25 28 32 34 34 35 37 37 40 39 39 34
38 39 41 43 45 44 42 42 41 39 35 32 31 28 29 26 27 28 26 26 27 30 31 35 37 36 40 40 40 41 38 33
39 40 41 43 43 43 44 40 35 32 32 32 32 34 31 30 30 30 27 29 25 29 32 34 35 39 39 40 40 37 36 32
39 41 42 42 42 43 41 36 32 33 31 32 32 31 30 31 31 30 29 30 30 30 30 31 33 39 39 39 35 32 31 30
40 41 41 41 42 40 37 33 34 31 30 30 32 30 30 30 30 30 29 31 30 29 30 30 31 32 33 34 32 32 33 28
41 41 41 41 40 36 34 35 32 30 29 30 30 31 29 29 29 29 30 30 30 29 30 30 29 29 32 31 31 30 29 26
41 41 40 40 37 35 33 33 31 29 28 26 27 28 29 29 29 30 30 29 29 30 30 29 29 30 30 33 32 27 25 27
41 40 39 39 37 34 32 34 33 32 23 23 24 27 29 29 29 30 30 29 29 30 30 29 29 27 26 25 24 25 26 27
41 39 38 37 35 33 32 35 36 28 24 23 26 28 29 28 28 29 29 30 28 28 28 30 32 27 23 28 27 27 27 26
39 38 36 35 33 31 32 35 32 28 27 26 26 27 27 27 28 30 29 29 27 27 27 28 32 28 31 28 24 24 23 22
38 37 37 35 34 32 33 31 29 27 26 25 25 26 25 26 25 24 25 28 28 28 27 27 31 31 29 24 23 21 23 22
37 37 37 37 34 30 32 29 26 26 24 23 25 23 21 22 23 23 26 28 28 27 26 28 28 27 25 22 21 23 24 22

GFSFLT1_sfc_dewp_021.txt.gz
Dewpoint
45 46 51 55 57 59 58 60 60 60 59 59 59 57 55 55 52 49 47 46 46 48 47 47 46 45 44 42 42 40 41 38
47 49 49 58 58 58 61 60 60 60 58 58 57 54 53 49 47 46 46 45 46 45 45 45 44 43 42 42 40 38 38 39
50 52 54 59 60 60 60 60 60 58 58 58 55 52 50 47 47 46 45 45 43 44 44 43 43 42 41 40 39 38 39 37
51 53 55 60 61 60 60 59 59 59 59 52 50 47 46 45 45 44 44 44 43 40 39 38 39 41 40 39 39 38 36 36
52 54 58 60 60 60 60 60 60 60 55 49 45 44 44 46 46 45 40 35 33 32 35 36 36 37 35 40 39 38 37 35
52 55 58 59 59 59 59 58 54 51 50 50 47 44 44 41 38 33 30 33 32 32 34 34 34 38 37 38 39 39 39 37
52 56 56 56 55 53 49 47 47 46 45 45 43 41 33 32 30 30 30 32 34 33 31 34 36 37 38 40 38 38 39 38
52 52 51 50 48 46 44 46 45 43 40 35 34 34 31 29 29 31 30 30 31 30 32 33 34 37 40 39 38 39 38 37
48 47 48 47 46 45 44 45 43 42 38 34 33 31 32 32 32 31 32 31 31 31 32 32 33 35 39 39 39 39 38 37
45 45 46 45 45 45 44 43 41 36 34 33 33 33 34 33 32 32 32 31 28 31 32 32 33 33 37 38 38 38 38 38
42 43 44 45 46 46 44 42 37 36 35 35 33 33 34 33 33 32 31 31 30 31 31 32 32 32 33 38 38 38 35 34
40 41 44 45 45 45 45 40 35 34 33 35 34 34 36 34 35 31 31 31 31 30 31 31 31 32 32 32 32 32 32 33
39 41 43 45 44 44 44 36 34 34 34 35 34 35 35 34 32 32 32 31 31 30 30 31 33 32 30 30 31 32 33 30
39 41 43 44 43 44 42 36 35 33 33 33 35 36 35 33 32 32 32 31 31 30 31 33 33 30 29 31 31 31 30 31
39 41 42 42 43 42 40 38 35 33 32 31 33 35 34 33 32 32 32 32 31 30 31 32 33 30 30 29 30 29 28 28
40 41 41 41 42 41 41 40 37 34 33 32 33 36 34 33 33 32 32 32 31 31 31 33 33 32 29 29 27 27 25 25
37 42 42 41 42 41 40 38 37 36 37 35 33 34 33 33 32 31 32 33 32 32 31 31 31 31 32 30 27 23 23 24
36 41 42 41 42 40 38 37 38 38 37 33 34 34 32 31 29 29 28 28 29 30 31 31 30 31 32 30 26 20 22 24
35 37 40 41 41 40 38 37 38 35 31 31 31 30 28 28 28 27 29 30 30 30 30 30 32 30 32 29 25 20 23 24

GFSFLT1_sfc_dewp_024.txt.gz
Dewpoint
56 58 58 58 58 59 58 60 58 58 58 58 57 56 54 54 51 49 46 46 48 47 45 45 44 43 42 41 37 38 38 38
51 56 56 56 58 58 59 59 59 57 58 57 56 54 53 51 46 46 45 46 45 44 45 43 43 42 41 40 38 36 36 37
47 51 55 56 58 58 59 59 59 56 56 58 56 53 49 46 45 45 44 44 43 43 43 43 42 40 39 39 37 37 38 36
50 52 55 57 57 59 59 59 58 57 56 56 51 48 46 44 43 43 44 44 40 38 37 36 36 37 36 37 38 36 35 36
51 55 57 58 58 59 60 59 58 58 57 53 50 47 44 44 44 44 38 34 35 35 34 35 35 36 35 36 40 38 36 35
52 58 59 59 59 59 59 59 59 59 52 50 47 45 45 45 41 33 32 33 34 34 34 34 36 37 37 39 38 38 38 37
53 58 60 59 59 59 58 57 52 52 51 48 45 41 38 35 32 31 32 34 34 32 33 33 34 37 39 38 38 38 37 37
55 56 58 58 57 56 52 47 44 43 42 41 38 34 32 30 30 31 32 32 32 31 32 32 33 37 39 38 38 38 37 36
54 54 52 52 51 48 47 43 40 36 35 34 34 32 32 32 33 33 33 32 32 32 32 32 33 33 37 38 38 38 37 36
51 50 49 48 45 46 45 42 38 35 33 33 32 33 34 34 33 33 34 33 31 31 31 31 32 32 31 36 38 37 36 36
49 48 47 45 44 44 44 41 36 34 34 34 34 34 33 34 34 33 33 33 32 31 31 31 31 31 33 35 37 37 36 33
47 47 46 45 44 44 43 39 34 32 32 33 34 34 35 35 34 34 34 32 32 31 31 30 30 33 32 31 30 31 32 33
45 45 46 45 45 44 43 39 34 32 33 34 33 34 35 35 34 33 34 33 32 31 31 30 31 33 31 29 30 31 32 30
42 43 44 45 45 45 43 39 35 33 33 33 33 34 34 34 33 33 33 33 31 31 30 30 31 33 31 31 31 31 31 30
40 41 43 44 44 44 43 38 36 33 33 32 33 34 34 34 33 33 33 32 32 30 31 32 33 33 31 31 30 29 28 27
39 40 42 43 44 44 40 39 38 35 33 32 34 35 35 34 33 32 33 33 31 31 32 32 33 32 31 31 28 27 26 25
39 41 42 42 43 43 43 40 37 36 33 32 33 37 34 34 32 31 31 31 32 32 32 33 32 31 32 33 29 25 24 23
42 42 42 42 43 44 43 41 37 34 34 36 36 34 33 32 30 29 29 29 30 31 30 31 31 32 33 33 30 22 22 23
36 41 42 42 42 42 40 38 36 37 34 33 32 31 31 31 31 33 33 33 31 30 30 31 31 32 33 32 28 21 22 24

GFSFLT1_sfc_dewp_027.txt.gz
Dewpoint
55 56 59 60 60 60 59 58 57 57 57 57 55 53 53 53 50 48 47 49 47 45 45 44 43 41 40 38 36 37 38 38
56 57 59 59 59 59 59 57 57 57 56 56 54 52 53 51 48 46 46 46 45 44 44 43 42 41 39 38 37 36 37 36
55 57 58 57 57 58 59 58 57 56 56 56 55 53 50 46 46 45 45 44 43 43 43 41 40 39 38 38 37 37 37 36
50 55 56 56 56 57 59 58 57 56 57 56 51 48 45 44 43 43 43 44 40 38 36 36 35 35 35 36 38 36 35 35
47 53 55 56 56 58 59 59 58 57 56 56 52 50 45 43 43 43 35 36 35 34 34 36 37 37 36 37 39 38 36 34
47 49 54 56 57 58 59 59 59 58 57 56 53 49 45 45 42 34 33 35 35 34 35 35 36 37 38 38 38 37 37 36
52 55 56 57 58 58 58 58 58 58 56 54 51 45 43 40 33 32 34 34 34 34 32 35 36 39 38 38 37 37 36 36
55 57 57 57 57 58 58 57 54 54 52 50 46 43 42 38 31 32 33 32 32 32 33 34 35 39 39 38 38 37 36 35
55 57 58 58 58 57 57 53 48 47 45 43 38 37 38 34 32 33 34 33 33 33 33 34 33 33 37 38 38 37 36 36
54 57 57 57 56 53 50 46 41 41 40 36 35 35 34 34 34 33 34 34 33 34 33 33 32 31 31 34 37 36 36 35
53 54 53 53 51 49 44 41 38 38 36 36 34 34 34 33 33 32 32 34 34 33 33 32 31 30 32 33 37 38 35 33
52 52 51 50 48 46 43 39 35 34 34 34 35 34 35 33 32 33 33 33 33 33 33 32 30 31 32 32 31 30 31 32
50 50 48 45 45 45 43 40 36 33 36 37 34 33 34 33 33 33 34 32 33 32 32 30 30 32 32 30 29 29 30 31
48 48 47 45 44 44 43 41 37 33 35 33 33 33 34 34 32 32 33 32 32 31 31 30 31 32 32 30 30 30 31 30
45 45 46 46 45 45 45 43 40 38 37 34 35 35 33 33 33 33 33 33 32 31 31 31 33 31 31 31 30 30 30 29
41 42 44 45 47 46 45 42 41 39 37 34 35 37 35 35 34 34 33 33 32 31 31 33 32 32 31 31 30 29 28 27
40 40 43 43 45 45 42 41 40 37 35 35 35 38 36 35 34 34 33 32 32 31 31 32 32 31 33 34 31 28 26 25
40 41 41 43 43 44 42 41 39 37 37 38 38 36 33 32 31 31 31 32 33 33 33 31 32 32 33 35 33 26 25 24
34 35 41 42 43 43 41 38 37 36 35 34 33 32 32 33 33 34 34 35 36 34 31 31 30 30 33 34 32 24 23 23

GFSFLT1_sfc_dewp_030.txt.gz
Dewpoint
55 54 56 58 60 60 60 59 57 56 56 55 54 53 53 52 50 49 50 47 46 45 44 43 42 40 38 37 36 38 38 37
55 54 57 59 59 59 59 57 56 56 56 54 52 52 52 50 48 47 48 46 44 44 43 42 41 39 39 38 37 36 36 35
54 55 58 59 59 59 58 58 57 56 55 54 53 53 51 48 46 46 45 45 44 43 42 41 39 38 37 38 37 37 37 36
54 56 57 58 58 59 59 58 57 56 56 54 50 50 46 44 43 43 43 44 42 39 37 36 35 35 35 37 37 36 35 35
52 55 57 57 58 58 59 58 57 56 57 54 51 51 47 46 43 43 37 37 36 35 36 37 37 37 37 39 38 38 36 34
49 51 56 57 56 57 58 58 57 56 57 55 53 51 50 47 43 34 35 35 35 35 36 36 37 38 39 39 38 37 37 36
46 48 53 55 56 56 58 59 58 57 56 54 52 49 48 44 40 35 37 34 35 34 34 35 37 40 38 38 38 36 36 36
49 51 53 55 56 57 58 59 57 57 56 54 52 50 47 43 35 34 32 33 35 34 34 34 37 40 39 38 37 36 36 35
50 53 54 55 56 56 58 58 57 56 55 53 51 48 46 42 35 33 32 33 33 33 35 34 34 38 38 38 38 37 37 36
49 54 55 56 56 56 58 56 56 54 53 50 47 45 43 38 40 35 34 34 33 34 34 36 35 33 34 36 38 37 37 36
51 54 56 56 56 57 56 54 52 50 49 45 43 43 43 41 36 36 37 37 33 35 36 34 33 33 34 34 35 37 36 36
52 54 55 55 54 52 52 48 44 43 43 41 40 41 40 40 38 38 34 34 36 36 34 33 32 32 33 33 35 35 33 31
51 51 51 51 51 50 49 44 40 39 39 40 41 40 40 37 34 33 34 34 35 33 34 32 32 32 33 32 30 29 30 31
49 50 49 49 49 48 48 44 41 42 40 41 39 37 33 32 33 33 34 34 34 33 32 32 32 33 33 32 31 30 30 30
48 48 48 47 46 48 46 44 40 41 39 38 36 34 33 33 34 34 34 34 33 32 33 33 33 33 32 32 31 30 30 30
45 46 46 47 47 47 46 43 42 42 40 37 34 35 35 35 37 35 35 34 33 32 33 33 33 34 31 32 31 30 29 29
42 42 43 45 47 47 46 43 41 41 40 37 39 39 39 37 35 35 35 34 33 32 32 33 35 33 33 34 33 30 29 27
38 41 41 42 44 45 43 43 41 39 38 38 40 40 38 36 34 32 32 32 34 35 36 36 35 33 34 35 35 30 28 27
32 33 36 38 42 42 40 38 37 37 37 38 38 35 33 34 34 34 35 36 38 38 37 34 32 30 33 34 34 31 27 26

GFSFLT1_sfc_dewp_033.txt.gz
Dewpoint
55 55 55 54 56 58 58 60 62 62 59 60 59 58 58 59 58 56 54 49 49 49 47 47 45 42 41 40 41 41 41 40
55 56 56 56 58 58 60 61 61 60 58 57 57 57 57 55 53 53 52 49 48 48 45 45 44 42 42 43 40 40 39 40
55 56 55 57 57 59 60 61 60 59 58 57 57 56 56 52 50 52 49 49 47 47 46 44 43 41 42 42 41 39 39 40
55 55 55 56 57 59 60 61 60 59 59 57 54 54 53 49 47 48 47 47 46 45 45 43 41 38 38 41 41 40 36 38
54 55 55 56 58 60 61 60 59 59 58 57 54 54 52 51 49 48 46 47 45 41 39 40 40 39 40 40 40 41 40 36
51 54 55 56 58 60 61 60 59 59 58 58 57 56 54 51 48 46 43 42 40 38 39 41 40 39 42 43 43 41 40 37
48 52 55 57 60 60 61 60 59 59 58 58 57 55 51 49 45 43 40 39 38 39 38 39 40 41 42 42 42 42 39 38
47 48 52 56 58 59 60 59 59 58 58 58 56 53 50 48 43 43 41 38 36 38 38 39 40 42 42 41 41 41 40 38
46 47 49 53 57 58 59 59 58 57 58 57 56 53 52 48 45 45 42 39 35 38 37 39 40 41 41 41 40 40 41 40
44 46 49 52 56 57 59 58 58 59 58 57 56 54 52 49 46 45 43 39 35 38 39 38 38 38 39 41 38 39 41 42
45 48 52 53 56 57 59 58 57 58 58 57 56 55 52 51 48 45 41 39 36 38 38 37 36 36 36 37 37 38 39 40
47 50 54 56 56 57 58 58 58 57 57 56 55 54 52 50 46 45 42 40 37 36 37 36 35 36 35 36 36 36 38 39
50 52 55 56 56 56 57 57 56 55 54 52 52 51 49 47 46 44 43 38 37 36 36 34 33 34 35 35 35 34 37 36
50 52 53 54 54 54 53 52 51 48 48 49 49 47 47 46 45 44 40 37 37 36 34 34 34 35 34 34 34 34 33 33
48 50 51 51 51 52 52 50 47 46 45 46 46 45 45 45 42 38 37 36 35 35 35 34 34 33 33 36 38 34 34 33
46 48 49 49 49 49 49 48 45 45 42 41 43 41 39 39 38 38 37 37 35 35 35 35 34 35 37 40 36 34 34 33
42 43 45 47 48 48 47 46 44 43 42 41 39 39 37 39 39 38 37 36 35 34 33 35 37 39 38 36 35 34 33 33
39 41 42 43 45 47 46 45 44 42 41 39 40 39 38 39 38 35 34 35 36 38 39 40 40 40 35 35 34 32 33 33
35 37 38 39 40 40 40 39 39 39 39 39 38 37 35 34 35 36 38 40 40 40 40 40 38 34 35 34 33 32 32 32

GFSFLT1_sfc_dewp_036.txt.gz
Dewpoint
51 53 51 51 52 54 55 57 59 62 60 58 55 59 61 61 61 59 58 54 54 54 52 52 48 45 45 43 42 39 36 36
50 51 53 52 54 55 56 57 60 62 58 54 54 57 59 60 60 59 58 55 53 53 50 49 47 45 45 45 40 37 37 39
50 53 52 53 53 55 57 57 59 60 58 54 56 58 59 58 57 57 56 54 52 51 50 48 47 45 46 44 39 38 39 38
51 52 55 54 53 55 55 57 59 61 59 56 56 58 59 56 54 54 53 53 50 48 50 48 48 45 42 41 40 41 39 39
49 53 54 55 55 56 56 56 58 60 60 57 56 54 56 57 55 52 51 51 50 47 48 48 46 42 40 39 40 42 41 38
48 49 53 54 55 56 58 58 58 60 61 60 58 57 58 58 54 52 52 52 50 47 46 45 44 40 40 42 43 42 41 36
47 49 51 54 56 57 59 59 58 60 61 61 60 59 58 57 53 51 50 49 49 46 42 43 43 40 42 45 44 44 39 37
47 48 50 52 55 58 59 59 59 60 61 60 60 59 59 56 54 52 49 46 46 45 44 42 40 41 45 43 44 41 40 37
46 47 49 51 55 58 59 60 59 60 60 60 60 60 59 56 55 50 46 45 44 45 42 41 40 43 42 43 39 43 40 38
42 45 47 50 53 58 59 59 58 60 59 57 58 59 58 56 54 49 47 47 45 43 42 41 42 41 42 40 39 39 38 41
40 42 45 48 51 55 59 59 58 59 56 58 57 58 57 57 55 51 50 49 46 42 42 40 41 41 39 39 39 37 39 40
43 45 47 50 51 54 56 58 57 58 56 58 59 59 58 58 56 53 52 50 46 42 41 40 38 38 36 37 35 36 36 35
45 48 51 53 53 54 55 56 56 57 58 59 58 58 58 57 55 53 52 48 46 42 41 38 38 35 34 34 35 31 35 36
45 49 52 53 54 55 56 57 57 57 57 57 57 56 55 55 53 51 49 48 46 43 39 36 35 35 34 35 34 36 39 37
43 48 51 52 54 55 55 56 56 54 53 53 54 53 51 51 50 49 49 48 45 41 38 37 37 33 33 35 40 42 40 35
43 47 50 51 53 53 53 53 53 52 51 50 51 51 50 50 49 47 45 43 39 37 37 37 37 36 36 42 42 40 40 37
45 47 48 49 50 50 50 49 49 49 47 46 45 44 44 43 41 40 39 38 36 36 36 36 36 38 39 38 38 39 39 34
42 43 44 45 46 48 47 47 46 45 44 43 42 41 40 40 37 36 35 35 37 38 39 38 39 38 38 38 37 35 37 35
40 41 42 42 43 43 44 43 43 42 42 41 40 39 38 37 36 36 38 40 40 40 39 38 38 39 38 37 36 39 35 33

GFSFLT1_sfc_dewp_039.txt.gz
Dewpoint
49 49 51 52 52 51 51 55 57 59 57 58 53 52 55 57 60 60 60 57 57 57 55 55 53 50 49 46 45 42 39 39
49 48 50 50 52 51 53 54 57 58 56 52 51 51 53 59 62 59 60 57 57 57 55 55 52 49 48 48 45 42 39 42
48 50 49 51 51 52 52 53 55 57 56 52 50 52 53 55 58 60 59 59 56 56 55 53 52 48 49 48 44 40 42 43
45 48 50 52 52 54 54 54 56 59 57 53 51 53 56 56 56 56 58 58 55 54 54 52 51 49 48 48 44 44 43 43
42 47 49 51 53 55 55 55 56 59 60 56 53 52 55 57 57 56 55 56 55 52 52 53 52 49 47 46 42 45 45 43
43 45 48 51 52 55 56 55 55 56 60 60 55 54 55 58 57 57 57 54 53 53 52 53 51 47 49 48 45 47 45 44
41 43 47 48 51 55 58 55 54 55 60 60 60 57 58 60 58 56 55 54 53 53 50 53 49 48 49 44 47 46 46 44
40 41 43 48 51 55 56 55 55 56 58 61 62 61 61 60 59 58 56 55 54 53 51 49 48 47 44 46 47 47 46 41
39 39 44 47 51 54 55 55 56 57 60 61 61 59 58 60 60 59 57 55 52 50 48 47 46 46 45 47 46 45 44 43
39 39 40 46 49 54 58 56 57 59 61 61 60 60 59 60 60 59 57 52 48 48 47 45 46 45 46 46 45 43 43 44
36 39 41 43 47 50 58 58 57 59 61 60 60 59 60 60 59 58 55 51 49 48 47 45 46 45 43 44 40 41 41 41
39 40 40 43 46 49 53 57 57 59 60 60 57 57 58 59 59 57 53 51 49 48 46 45 44 44 44 41 40 39 38 41
40 43 45 46 47 48 52 56 57 57 60 57 56 58 58 59 58 57 55 53 51 50 46 44 44 42 40 38 37 36 35 38
40 46 48 50 51 52 53 55 55 56 58 56 57 59 59 58 58 57 54 53 51 48 44 44 42 40 37 37 38 39 40 42
35 44 48 51 53 54 54 56 56 56 56 56 58 56 56 56 54 53 52 51 50 48 46 42 41 36 37 38 41 42 42 40
34 43 48 51 53 54 55 56 56 55 54 54 55 55 53 53 51 51 50 50 48 42 41 39 39 39 39 40 41 41 40 40
40 43 48 50 52 53 53 53 54 53 52 51 51 50 49 49 48 47 46 42 40 39 38 39 39 37 39 40 39 39 40 39
43 46 48 50 50 51 50 49 49 48 46 45 45 44 43 43 40 38 38 37 38 38 39 39 39 40 39 39 37 39 39 38
43 44 45 45 45 45 45 44 44 44 43 43 43 42 40 38 37 37 37 39 39 39 39 39 39 38 38 38 37 38 38 38

GFSFLT1_sfc_dewp_042.txt.gz
Dewpoint
52 49 49 49 50 50 51 51 51 52 52 54 53 55 55 55 55 61 60 59 60 60 60 58 56 55 53 51 47 44 44 43
53 51 51 50 51 49 49 50 52 54 55 55 55 54 55 57 60 60 62 60 59 59 59 58 56 54 52 51 48 43 41 44
48 51 51 53 51 51 53 51 54 56 57 54 55 54 54 56 60 62 61 61 58 58 59 58 56 53 53 50 48 46 45 46
47 49 51 52 51 51 52 54 55 57 57 55 53 54 53 54 57 61 60 61 59 58 58 56 56 55 52 51 49 46 44 46
48 48 50 51 52 53 52 53 53 55 57 57 53 50 51 56 58 58 59 60 59 57 56 56 55 54 51 51 49 47 47 45
45 48 49 50 53 54 54 54 54 56 58 59 58 53 57 60 59 59 58 59 58 58 55 54 55 54 53 50 47 48 48 44
42 47 49 51 52 54 56 56 55 56 59 59 59 57 57 59 59 58 58 57 56 55 54 55 55 54 51 49 48 49 46 45
42 43 46 49 52 54 55 55 55 56 59 60 60 59 59 58 58 59 58 56 56 56 56 55 54 51 50 47 49 49 47 43
42 42 45 47 51 53 54 54 54 55 58 59 60 60 59 60 59 59 57 56 57 57 55 51 49 48 48 48 49 48 46 44
42 42 43 48 50 54 55 55 54 55 56 60 61 60 59 59 59 59 58 57 56 53 51 49 48 49 47 47 46 46 44 43
40 40 42 45 50 53 56 55 55 55 58 61 61 61 59 58 59 59 58 56 51 51 50 48 47 47 46 46 46 44 42 42
40 41 43 45 46 49 55 56 56 57 58 62 61 60 59 60 60 60 59 52 51 49 49 47 45 46 45 44 43 42 40 41
40 44 45 45 46 49 56 57 58 58 60 61 60 60 58 58 58 58 55 52 51 49 48 46 45 45 45 44 42 36 40 40
39 44 47 48 49 50 53 57 57 59 60 60 60 57 58 58 58 57 54 52 51 50 48 45 44 45 43 40 39 42 42 43
34 43 48 50 52 53 53 57 58 59 60 59 58 58 57 56 55 54 53 53 51 48 46 45 44 40 39 39 42 42 41 42
33 40 48 51 54 55 55 58 59 58 58 57 57 56 55 54 53 53 51 51 50 47 43 41 39 39 40 42 41 41 40 41
31 37 48 51 54 54 56 56 56 56 55 54 55 55 53 54 53 52 49 46 42 40 39 39 39 39 39 39 40 40 40 39
40 42 49 52 53 55 54 54 54 53 50 49 51 50 49 47 44 42 41 40 40 39 39 40 39 39 39 39 38 38 38 38
44 48 51 51 52 51 51 50 48 47 46 45 45 44 42 40 39 38 39 39 39 40 39 39 39 38 38 38 37 38 38 38

GFSFLT1_sfc_dewp_045.txt.gz
Dewpoint
49 50 51 51 51 53 52 51 51 51 50 49 48 49 48 47 53 55 60 59 59 60 60 58 54 53 53 51 46 44 42 40
49 49 50 50 50 51 51 50 51 48 49 48 47 49 50 53 55 59 56 56 59 60 59 56 54 53 51 49 46 40 39 42
48 48 49 49 49 50 50 49 49 49 50 49 50 51 53 53 58 59 58 58 60 60 58 56 55 54 51 49 45 43 41 43
49 47 48 49 47 48 49 49 49 50 50 53 54 54 52 53 56 58 58 60 60 59 58 57 56 54 52 48 48 44 41 44
49 49 50 50 49 48 48 49 49 50 54 54 52 51 49 51 55 58 59 60 59 59 57 57 57 56 52 49 49 47 47 46
48 49 51 50 49 49 50 51 50 53 55 55 56 51 51 53 55 58 59 59 58 58 57 56 55 54 52 51 50 49 48 46
47 49 50 51 49 49 50 51 52 53 55 57 57 55 52 56 57 57 57 58 57 58 56 54 54 54 52 52 49 48 48 48
47 47 48 49 50 50 50 50 51 52 53 56 57 57 56 56 56 57 57 56 56 56 56 54 55 53 52 49 49 49 48 46
46 47 48 48 49 51 51 51 51 52 54 55 57 57 56 57 57 57 57 57 57 55 55 54 55 53 51 48 50 49 48 47
41 46 48 49 49 50 52 53 53 54 56 57 57 58 57 57 57 57 58 57 55 55 54 52 51 51 48 48 49 48 46 44
40 42 47 48 50 51 52 52 54 53 55 58 58 58 58 58 58 57 56 55 53 53 52 51 49 48 47 47 46 46 44 44
40 45 48 49 55 56 54 54 55 56 56 57 58 59 58 58 57 57 57 53 51 51 50 48 47 46 47 46 46 44 42 42
39 46 48 50 53 54 53 54 57 57 57 57 60 60 59 58 58 58 57 53 51 50 49 48 47 46 45 45 43 42 43 43
40 42 44 45 46 52 53 56 56 57 58 60 60 59 59 59 58 56 53 52 51 50 49 48 46 46 44 44 41 42 42 43
39 43 46 47 49 52 55 57 58 59 60 60 59 57 57 56 55 54 53 52 50 50 48 47 46 44 42 41 42 42 42 42
34 43 47 50 51 54 57 57 58 60 60 58 55 54 54 53 53 53 52 51 50 47 45 44 42 40 41 42 42 41 40 40
29 46 50 53 54 56 55 56 56 58 57 56 55 54 53 53 52 51 50 48 45 43 41 41 40 40 39 40 40 40 39 39
32 43 51 53 54 54 54 54 54 54 54 54 53 53 52 50 46 44 42 41 40 40 40 40 40 40 39 39 38 39 39 39
42 50 52 53 53 53 53 52 49 50 50 49 49 46 43 41 41 40 39 39 39 37 38 39 39 38 38 38 36 38 38 39

GFSFLT1_sfc_dewp_048.txt.gz
Dewpoint
50 51 52 52 52 53 54 55 54 54 53 52 51 52 51 50 48 50 52 56 57 59 59 58 55 52 52 50 48 46 42 40
50 51 51 51 52 52 52 53 52 51 50 49 49 49 50 49 49 53 55 57 59 59 58 58 55 53 52 51 46 41 40 41
49 50 50 51 51 52 51 51 50 49 48 47 48 48 49 48 48 52 56 56 57 59 59 58 55 53 51 50 45 42 39 42
48 49 49 50 50 51 51 50 48 49 48 47 47 48 48 47 47 52 56 56 55 59 59 57 55 54 52 52 46 43 43 45
48 48 48 48 49 50 50 49 49 49 50 48 47 47 47 48 49 52 56 57 58 59 59 57 56 55 53 52 48 45 45 44
48 47 48 48 48 48 49 49 48 48 49 50 50 52 53 52 52 54 57 58 59 59 58 57 56 57 55 51 49 48 48 48
50 47 48 48 48 47 47 48 48 48 49 51 53 54 52 52 53 54 55 58 59 58 58 58 57 57 55 52 50 49 49 47
51 48 48 49 49 46 47 47 48 48 49 51 53 55 54 52 52 53 55 57 57 58 57 57 56 54 53 52 51 49 49 48
47 49 49 51 50 49 47 48 50 49 50 52 54 54 56 55 53 55 56 56 56 58 57 55 54 54 52 50 50 50 48 48
47 47 49 50 50 49 48 47 50 50 51 53 54 55 56 55 56 56 57 57 56 55 56 54 53 53 51 48 49 48 48 47
47 47 48 50 51 50 50 49 48 49 51 52 53 54 55 56 56 56 57 57 55 54 54 53 52 51 50 48 48 48 47 46
42 47 48 49 50 50 51 52 52 52 54 53 54 55 56 58 57 57 57 56 55 54 53 52 51 50 49 47 47 46 45 43
41 42 46 49 50 50 50 52 53 53 54 55 55 58 58 58 58 58 57 56 54 54 52 50 50 48 48 46 46 45 43 43
42 44 45 47 49 50 50 51 52 54 55 55 57 58 58 58 59 60 60 55 53 53 52 50 48 48 46 46 45 44 43 43
41 43 46 47 47 50 52 53 54 54 56 57 57 58 58 59 59 59 57 54 52 51 51 50 49 47 46 44 43 43 43 43
35 43 44 47 49 52 50 53 53 56 57 57 58 59 59 58 57 54 53 52 52 50 49 48 46 45 43 42 42 42 42 42
31 42 47 50 53 56 56 56 55 57 57 57 59 57 57 55 54 53 52 50 49 47 47 44 42 41 39 40 41 41 41 40
29 41 48 52 55 55 55 56 58 58 58 57 55 55 55 53 52 50 48 47 46 43 42 42 41 41 39 39 38 39 39 39
31 46 51 54 54 54 53 54 55 55 55 54 53 52 50 49 48 45 44 44 44 42 41 41 41 40 38 38 37 38 38 38

GFSFLT1_sfc_dewp_051.txt.gz
Dewpoint
51 52 52 53 53 55 55 55 56 56 54 54 54 54 49 48 49 55 57 57 59 58 57 56 55 53 52 50 47 45 43 41
50 51 51 52 53 53 55 55 55 55 54 53 53 53 52 48 48 52 53 55 58 58 58 57 54 52 51 50 47 44 42 41
50 50 51 51 52 52 53 53 53 53 54 53 53 53 52 48 48 50 53 55 55 57 57 57 55 53 51 50 46 42 41 42
49 49 50 50 51 51 51 52 51 50 50 50 49 51 50 48 48 49 51 55 55 57 58 57 55 54 52 51 48 44 41 43
48 49 49 49 50 51 51 51 50 49 49 47 47 47 46 47 48 48 49 53 56 55 57 57 56 55 53 53 52 48 47 42
48 48 48 49 50 51 51 50 50 49 49 48 47 47 48 48 49 49 51 54 56 57 57 57 56 55 54 53 51 50 50 48
49 48 48 49 49 49 50 49 49 49 49 49 49 48 49 50 51 51 52 53 56 57 57 57 56 56 55 54 53 51 49 48
50 48 47 48 48 48 49 49 49 49 49 49 49 49 51 52 52 52 52 53 55 56 57 56 56 56 57 56 53 51 50 49
50 49 47 47 48 47 47 48 48 48 48 48 49 50 52 54 53 53 52 53 54 56 57 57 57 57 57 55 54 53 51 48
49 50 48 47 48 48 46 47 47 48 48 48 48 49 51 53 55 54 53 54 55 55 57 57 57 56 55 53 52 50 49 48
42 49 49 48 49 49 48 47 46 47 48 48 48 50 52 53 54 56 55 55 55 55 56 55 54 54 52 50 48 49 48 48
42 45 49 49 51 51 50 47 48 50 50 49 49 50 53 54 55 55 56 56 57 56 55 55 54 52 51 49 48 48 48 46
43 45 47 49 50 51 50 50 48 48 50 52 52 52 53 54 56 57 57 57 57 56 56 55 54 53 51 49 48 47 47 45
41 43 47 47 49 50 51 51 49 50 49 50 52 53 55 55 57 57 58 57 57 57 55 53 52 51 50 48 48 46 45 44
39 41 43 47 48 49 50 51 52 52 51 51 52 53 55 57 57 58 58 58 57 54 53 53 53 50 49 48 48 46 44 43
37 43 44 44 47 49 49 50 51 52 53 53 53 54 56 57 57 57 58 57 55 53 51 51 49 49 48 47 45 44 43 43
29 40 43 46 47 48 49 51 52 52 52 53 54 55 57 57 57 58 56 54 53 52 51 50 48 48 41 41 42 42 42 42
32 33 43 45 46 47 48 49 52 54 54 54 55 57 57 57 56 53 53 51 50 48 46 47 46 43 39 40 40 41 41 40
32 31 43 46 50 53 53 55 55 55 55 56 57 57 56 54 52 51 48 47 46 45 44 43 44 41 39 38 37 39 39 39